Time,TemperatureF,DewpointF,PressureIn,WindDirection,WindDirectionDegrees,WindSpeedMPH,WindSpeedGustMPH,Humidity,HourlyPrecipIn,Conditions,Clouds,dailyrainin,SoftwareType,DateUTC
2013-02-24 00:01:00,25.0,20.0,30.00,WNW,295,3.0,5.0,82,0.00,,,0.00,,2013-02-24 05:01:00,
2013-02-24 00:11:00,25.0,20.0,30.00,WNW,295,3.0,5.0,82,0.00,,,0.00,,2013-02-24 05:11:00,
2013-02-24 00:22:00,26.0,22.0,30.00,WNW,299,3.0,5.0,84,0.00,,,0.00,,2013-02-24 05:22:00,
2013-02-24 00:32:00,25.0,21.0,30.00,WNW,287,3.0,7.0,84,0.00,,,0.00,,2013-02-24 05:32:00,
2013-02-24 00:42:00,25.0,21.0,30.00,WNW,287,3.0,7.0,84,0.00,,,0.00,,2013-02-24 05:42:00,
2013-02-24 00:52:00,25.0,21.0,30.00,WNW,288,1.0,8.0,84,0.00,,,0.00,,2013-02-24 05:52:00,
2013-02-24 01:01:00,24.0,20.0,30.00,WSW,248,1.0,4.0,85,0.00,,,0.00,,2013-02-24 06:01:00,
2013-02-24 01:11:00,24.0,20.0,30.00,WSW,248,1.0,4.0,85,0.00,,,0.00,,2013-02-24 06:11:00,
2013-02-24 01:21:00,24.0,20.0,30.00,WNW,285,0.0,2.0,86,0.00,,,0.00,,2013-02-24 06:21:00,
2013-02-24 01:31:00,23.0,20.0,30.00,WNW,285,0.0,1.0,87,0.00,,,0.00,,2013-02-24 06:31:00,
2013-02-24 01:42:00,23.0,20.0,30.00,WNW,285,0.0,1.0,87,0.00,,,0.00,,2013-02-24 06:42:00,
2013-02-24 01:52:00,22.0,19.0,30.01,WNW,285,0.0,0.0,89,0.00,,,0.00,,2013-02-24 06:52:00,
2013-02-24 02:01:00,21.0,19.0,30.01,WNW,285,0.0,0.0,90,0.00,,,0.00,,2013-02-24 07:01:00,
2013-02-24 02:12:00,21.0,19.0,30.01,WNW,285,0.0,0.0,90,0.00,,,0.00,,2013-02-24 07:12:00,
2013-02-24 02:21:00,21.0,19.0,30.01,WNW,284,0.0,1.0,91,0.00,,,0.00,,2013-02-24 07:21:00,
2013-02-24 02:31:00,20.0,18.0,30.01,WNW,284,0.0,0.0,91,0.00,,,0.00,,2013-02-24 07:31:00,
2013-02-24 02:41:00,20.0,18.0,30.01,WNW,284,0.0,0.0,91,0.00,,,0.00,,2013-02-24 07:41:00,
2013-02-24 02:52:00,20.0,18.0,30.00,WNW,284,0.0,0.0,92,0.00,,,0.00,,2013-02-24 07:52:00,
2013-02-24 03:01:00,20.0,18.0,30.01,WNW,284,0.0,0.0,93,0.00,,,0.00,,2013-02-24 08:01:00,
2013-02-24 03:11:00,20.0,18.0,30.01,WNW,284,0.0,0.0,93,0.00,,,0.00,,2013-02-24 08:11:00,
2013-02-24 03:22:00,19.0,17.0,30.02,WNW,284,0.0,1.0,93,0.00,,,0.00,,2013-02-24 08:22:00,
2013-02-24 03:31:00,19.0,17.0,30.01,WNW,284,0.0,1.0,93,0.00,,,0.00,,2013-02-24 08:31:00,
2013-02-24 03:42:00,19.0,17.0,30.01,WNW,284,0.0,1.0,93,0.00,,,0.00,,2013-02-24 08:42:00,
2013-02-24 03:54:00,19.0,17.0,30.01,WNW,284,0.0,1.0,93,0.00,,,0.00,,2013-02-24 08:54:00,
2013-02-24 04:01:00,19.0,18.0,30.01,WNW,284,0.0,0.0,94,0.00,,,0.00,,2013-02-24 09:01:00,
2013-02-24 04:11:00,19.0,18.0,30.01,WNW,284,0.0,0.0,94,0.00,,,0.00,,2013-02-24 09:11:00,
2013-02-24 04:21:00,19.0,17.0,30.02,WNW,284,0.0,1.0,93,0.00,,,0.00,,2013-02-24 09:21:00,
2013-02-24 04:31:00,19.0,18.0,30.03,WNW,284,0.0,0.0,94,0.00,,,0.00,,2013-02-24 09:31:00,
2013-02-24 04:41:00,19.0,18.0,30.03,WNW,284,0.0,0.0,94,0.00,,,0.00,,2013-02-24 09:41:00,
2013-02-24 04:52:00,18.0,16.0,30.02,WNW,285,0.0,0.0,93,0.00,,,0.00,,2013-02-24 09:52:00,
2013-02-24 05:01:00,18.0,17.0,30.02,WNW,285,0.0,0.0,94,0.00,,,0.00,,2013-02-24 10:01:00,
2013-02-24 05:11:00,18.0,17.0,30.02,WNW,285,0.0,0.0,94,0.00,,,0.00,,2013-02-24 10:11:00,
2013-02-24 05:21:00,18.0,17.0,30.03,WNW,285,0.0,1.0,94,0.00,,,0.00,,2013-02-24 10:21:00,
2013-02-24 05:31:00,18.0,17.0,30.03,WNW,285,0.0,1.0,94,0.00,,,0.00,,2013-02-24 10:31:00,
2013-02-24 05:41:00,18.0,17.0,30.03,WNW,285,0.0,1.0,94,0.00,,,0.00,,2013-02-24 10:41:00,
2013-02-24 05:52:00,18.0,17.0,30.03,WNW,285,0.0,0.0,94,0.00,,,0.00,,2013-02-24 10:52:00,
2013-02-24 07:21:00,17.0,16.0,30.07,WNW,285,0.0,0.0,94,0.00,,,0.00,,2013-02-24 12:21:00,
2013-02-24 07:32:00,17.0,16.0,30.08,WNW,285,0.0,0.0,95,0.00,,,0.00,,2013-02-24 12:32:00,
2013-02-24 07:46:00,17.0,16.0,30.08,WNW,285,0.0,0.0,95,0.00,,,0.00,,2013-02-24 12:46:00,
2013-02-24 07:56:00,16.0,15.0,30.08,WNW,285,0.0,0.0,94,0.00,,,0.00,,2013-02-24 12:56:00,
2013-02-24 08:09:00,16.0,15.0,30.08,WNW,285,0.0,0.0,95,0.00,,,0.00,,2013-02-24 13:09:00,
2013-02-24 08:16:00,16.0,15.0,30.08,WNW,285,0.0,0.0,95,0.00,,,0.00,,2013-02-24 13:16:00,
2013-02-24 08:26:00,17.0,16.0,30.09,WNW,285,0.0,1.0,95,0.00,,,0.00,,2013-02-24 13:26:00,
2013-02-24 08:33:00,18.0,17.0,30.09,WNW,285,0.0,0.0,95,0.00,,,0.00,,2013-02-24 13:33:00,
2013-02-24 08:43:00,18.0,17.0,30.09,WNW,285,0.0,0.0,95,0.00,,,0.00,,2013-02-24 13:43:00,
2013-02-24 08:54:00,20.0,19.0,30.09,SW,233,0.0,1.0,94,0.00,,,0.00,,2013-02-24 13:54:00,
2013-02-24 09:03:00,21.0,19.0,30.10,SW,233,1.0,3.0,92,0.00,,,0.00,,2013-02-24 14:03:00,
2013-02-24 09:13:00,23.0,20.0,30.11,NW,314,1.0,2.0,89,0.00,,,0.00,,2013-02-24 14:13:00,
2013-02-24 09:23:00,23.0,20.0,30.11,NW,314,1.0,2.0,89,0.00,,,0.00,,2013-02-24 14:23:00,
2013-02-24 09:33:00,23.0,20.0,30.11,West,266,1.0,4.0,88,0.00,,,0.00,,2013-02-24 14:33:00,
2013-02-24 09:44:00,23.0,20.0,30.11,West,266,1.0,4.0,88,0.00,,,0.00,,2013-02-24 14:44:00,
2013-02-24 09:54:00,25.0,21.0,30.12,WNW,284,1.0,4.0,86,0.00,,,0.00,,2013-02-24 14:54:00,
2013-02-24 10:02:00,26.0,22.0,30.12,NE,44,1.0,4.0,83,0.00,,,0.00,,2013-02-24 15:02:00,
2013-02-24 10:13:00,27.0,22.0,30.12,NW,322,1.0,5.0,80,0.00,,,0.00,,2013-02-24 15:13:00,
2013-02-24 10:32:00,27.0,21.0,30.12,West,281,2.0,4.0,79,0.00,,,0.00,,2013-02-24 15:32:00,
2013-02-24 10:42:00,27.0,21.0,30.12,West,281,2.0,4.0,79,0.00,,,0.00,,2013-02-24 15:42:00,
2013-02-24 10:53:00,29.0,23.0,30.13,NW,309,2.0,5.0,77,0.00,,,0.00,,2013-02-24 15:53:00,
2013-02-24 11:01:00,29.0,23.0,30.13,North,353,1.0,5.0,77,0.00,,,0.00,,2013-02-24 16:01:00,
2013-02-24 11:11:00,30.0,23.0,30.13,WNW,290,2.0,4.0,76,0.00,,,0.00,,2013-02-24 16:11:00,
2013-02-24 11:21:00,30.0,23.0,30.13,WNW,290,2.0,4.0,76,0.00,,,0.00,,2013-02-24 16:21:00,
2013-02-24 11:32:00,31.0,24.0,30.13,SW,229,2.0,5.0,75,0.00,,,0.00,,2013-02-24 16:32:00,
2013-02-24 11:41:00,31.0,24.0,30.13,SW,229,2.0,5.0,75,0.00,,,0.00,,2013-02-24 16:41:00,
2013-02-24 11:52:00,31.0,23.0,30.14,NNW,338,2.0,6.0,71,0.00,,,0.00,,2013-02-24 16:52:00,
2013-02-24 12:01:00,32.0,24.0,30.14,WNW,302,2.0,6.0,71,0.00,,,0.00,,2013-02-24 17:01:00,
2013-02-24 12:11:00,32.0,24.0,30.14,WNW,302,2.0,6.0,71,0.00,,,0.00,,2013-02-24 17:11:00,
2013-02-24 12:21:00,32.0,23.0,30.13,WNW,302,2.0,9.0,69,0.00,,,0.00,,2013-02-24 17:21:00,
2013-02-24 12:32:00,33.0,25.0,30.13,West,274,2.0,6.0,71,0.00,,,0.00,,2013-02-24 17:32:00,
2013-02-24 12:41:00,33.0,25.0,30.13,West,274,2.0,6.0,71,0.00,,,0.00,,2013-02-24 17:41:00,
2013-02-24 12:52:00,34.0,24.0,30.14,West,276,3.0,7.0,67,0.00,,,0.00,,2013-02-24 17:52:00,
2013-02-24 13:01:00,34.0,23.0,30.13,WNW,297,4.0,8.0,64,0.00,,,0.00,,2013-02-24 18:01:00,
2013-02-24 13:11:00,34.0,23.0,30.13,WNW,297,4.0,8.0,64,0.00,,,0.00,,2013-02-24 18:11:00,
2013-02-24 13:22:00,35.0,24.0,30.13,NW,315,3.0,6.0,65,0.00,,,0.00,,2013-02-24 18:22:00,
2013-02-24 13:31:00,35.0,24.0,30.13,NW,318,5.0,7.0,64,0.01,,,0.01,,2013-02-24 18:31:00,
2013-02-24 13:42:00,35.0,24.0,30.13,NW,318,5.0,7.0,64,0.01,,,0.01,,2013-02-24 18:42:00,
2013-02-24 13:52:00,35.0,24.0,30.12,NW,308,4.0,7.0,64,0.01,,,0.01,,2013-02-24 18:52:00,
2013-02-24 14:01:00,36.0,25.0,30.11,WNW,302,3.0,7.0,65,0.01,,,0.01,,2013-02-24 19:01:00,
2013-02-24 14:11:00,36.0,25.0,30.11,WNW,302,3.0,7.0,65,0.01,,,0.01,,2013-02-24 19:11:00,
2013-02-24 14:22:00,36.0,25.0,30.11,WNW,287,3.0,9.0,64,0.01,,,0.01,,2013-02-24 19:22:00,
2013-02-24 14:32:00,36.0,24.0,30.11,NW,307,4.0,9.0,62,0.00,,,0.01,,2013-02-24 19:32:00,
2013-02-24 14:41:00,36.0,24.0,30.11,NW,307,4.0,9.0,62,0.00,,,0.01,,2013-02-24 19:41:00,
2013-02-24 14:52:00,37.0,26.0,30.11,NW,318,4.0,8.0,63,0.01,,,0.02,,2013-02-24 19:52:00,
2013-02-24 15:02:00,37.0,25.0,30.11,WNW,297,3.0,8.0,62,0.01,,,0.02,,2013-02-24 20:02:00,
2013-02-24 15:11:00,37.0,25.0,30.11,WNW,297,3.0,8.0,62,0.01,,,0.02,,2013-02-24 20:11:00,
2013-02-24 15:21:00,37.0,26.0,30.11,West,271,4.0,7.0,63,0.01,,,0.02,,2013-02-24 20:21:00,
2013-02-24 15:31:00,37.0,26.0,30.11,NNW,338,4.0,6.0,63,0.01,,,0.02,,2013-02-24 20:31:00,
2013-02-24 15:41:00,37.0,26.0,30.11,NNW,338,4.0,6.0,63,0.01,,,0.02,,2013-02-24 20:41:00,
2013-02-24 15:52:00,38.0,26.0,30.11,NNW,330,3.0,8.0,62,0.00,,,0.02,,2013-02-24 20:52:00,
2013-02-24 16:01:00,38.0,27.0,30.11,NW,308,1.0,6.0,63,0.00,,,0.02,,2013-02-24 21:01:00,
2013-02-24 16:11:00,38.0,27.0,30.11,NW,308,1.0,6.0,63,0.00,,,0.02,,2013-02-24 21:11:00,
2013-02-24 16:21:00,38.0,27.0,30.11,NW,309,3.0,7.0,63,0.00,,,0.02,,2013-02-24 21:21:00,
2013-02-24 16:32:00,38.0,27.0,30.11,NW,307,3.0,6.0,63,0.00,,,0.02,,2013-02-24 21:32:00,
2013-02-24 16:41:00,38.0,27.0,30.11,NW,307,3.0,6.0,63,0.00,,,0.02,,2013-02-24 21:41:00,
2013-02-24 16:52:00,39.0,27.0,30.11,NW,308,3.0,6.0,63,0.00,,,0.02,,2013-02-24 21:52:00,
2013-02-24 17:01:00,38.0,27.0,30.11,WNW,294,3.0,8.0,63,0.00,,,0.02,,2013-02-24 22:01:00,
2013-02-24 17:11:00,38.0,27.0,30.11,WNW,294,3.0,8.0,63,0.00,,,0.02,,2013-02-24 22:11:00,
2013-02-24 17:21:00,39.0,27.0,30.11,NW,310,1.0,5.0,63,0.00,,,0.02,,2013-02-24 22:21:00,
2013-02-24 17:31:00,38.0,27.0,30.11,WNW,290,3.0,5.0,63,0.00,,,0.02,,2013-02-24 22:31:00,
2013-02-24 17:41:00,38.0,27.0,30.11,WNW,290,3.0,5.0,63,0.00,,,0.02,,2013-02-24 22:41:00,
2013-02-24 17:52:00,38.0,27.0,30.11,NNW,345,0.0,3.0,65,0.00,,,0.02,,2013-02-24 22:52:00,
2013-02-24 18:02:00,38.0,27.0,30.11,NNW,340,1.0,4.0,65,0.00,,,0.02,,2013-02-24 23:02:00,
2013-02-24 18:11:00,38.0,27.0,30.11,NNW,340,1.0,4.0,65,0.00,,,0.02,,2013-02-24 23:11:00,
2013-02-24 18:21:00,37.0,27.0,30.11,North,1,2.0,3.0,66,0.00,,,0.02,,2013-02-24 23:21:00,
2013-02-24 18:31:00,37.0,27.0,30.11,North,354,1.0,2.0,67,0.00,,,0.02,,2013-02-24 23:31:00,
2013-02-24 18:41:00,37.0,27.0,30.11,North,354,1.0,2.0,67,0.00,,,0.02,,2013-02-24 23:41:00,
2013-02-24 18:52:00,36.0,27.0,30.11,NNE,19,1.0,3.0,69,0.00,,,0.02,,2013-02-24 23:52:00,
2013-02-24 19:01:00,35.0,26.0,30.12,NNE,19,0.0,1.0,70,0.00,,,0.02,,2013-02-25 00:01:00,
2013-02-24 19:11:00,35.0,26.0,30.12,NNE,19,0.0,1.0,70,0.00,,,0.02,,2013-02-25 00:11:00,
2013-02-24 19:21:00,34.0,26.0,30.12,NNE,18,0.0,0.0,73,0.00,,,0.02,,2013-02-25 00:21:00,
2013-02-24 19:31:00,33.0,26.0,30.13,NNE,18,0.0,1.0,74,0.00,,,0.02,,2013-02-25 00:31:00,
2013-02-24 19:42:00,33.0,26.0,30.13,NNE,18,0.0,1.0,74,0.00,,,0.02,,2013-02-25 00:42:00,
2013-02-24 19:52:00,32.0,25.0,30.13,NNE,17,0.0,0.0,76,0.00,,,0.02,,2013-02-25 00:52:00,
2013-02-24 20:01:00,31.0,25.0,30.13,NNE,17,0.0,0.0,79,0.00,,,0.02,,2013-02-25 01:01:00,
2013-02-24 20:11:00,31.0,25.0,30.13,NNE,17,0.0,0.0,79,0.00,,,0.02,,2013-02-25 01:11:00,
2013-02-24 20:21:00,30.0,25.0,30.14,NNE,18,0.0,0.0,81,0.00,,,0.02,,2013-02-25 01:21:00,
2013-02-24 20:31:00,30.0,25.0,30.14,NNE,17,0.0,0.0,83,0.00,,,0.02,,2013-02-25 01:31:00,
2013-02-24 20:42:00,30.0,25.0,30.14,NNE,17,0.0,0.0,83,0.00,,,0.02,,2013-02-25 01:42:00,
2013-02-24 20:52:00,29.0,25.0,30.14,NNE,17,0.0,0.0,84,0.00,,,0.02,,2013-02-25 01:52:00,
2013-02-24 21:01:00,29.0,25.0,30.14,NNE,18,0.0,1.0,85,0.00,,,0.02,,2013-02-25 02:01:00,
2013-02-24 21:11:00,29.0,25.0,30.14,East,83,0.0,1.0,86,0.00,,,0.02,,2013-02-25 02:11:00,
2013-02-24 21:21:00,29.0,25.0,30.14,East,83,0.0,1.0,86,0.00,,,0.02,,2013-02-25 02:21:00,
2013-02-24 21:31:00,29.0,25.0,30.14,SE,129,0.0,1.0,85,0.00,,,0.02,,2013-02-25 02:31:00,
2013-02-24 21:41:00,29.0,25.0,30.14,SE,129,0.0,1.0,85,0.00,,,0.02,,2013-02-25 02:41:00,
2013-02-24 21:52:00,29.0,25.0,30.14,ENE,72,1.0,1.0,85,0.00,,,0.02,,2013-02-25 02:52:00,
2013-02-24 22:01:00,30.0,26.0,30.14,ENE,72,0.0,1.0,84,0.00,,,0.02,,2013-02-25 03:01:00,
2013-02-24 22:11:00,30.0,26.0,30.14,ENE,72,0.0,1.0,84,0.00,,,0.02,,2013-02-25 03:11:00,
2013-02-24 22:21:00,29.0,25.0,30.14,East,95,0.0,1.0,84,0.00,,,0.02,,2013-02-25 03:21:00,
2013-02-24 22:31:00,29.0,25.0,30.14,East,97,0.0,1.0,84,0.00,,,0.02,,2013-02-25 03:31:00,
2013-02-24 22:41:00,29.0,25.0,30.14,East,97,0.0,1.0,84,0.00,,,0.02,,2013-02-25 03:41:00,
2013-02-24 22:52:00,29.0,25.0,30.14,East,85,0.0,1.0,84,0.00,,,0.02,,2013-02-25 03:52:00,
2013-02-24 23:01:00,29.0,25.0,30.14,East,85,0.0,0.0,85,0.00,,,0.02,,2013-02-25 04:01:00,
2013-02-24 23:11:00,29.0,25.0,30.14,East,85,0.0,0.0,85,0.00,,,0.02,,2013-02-25 04:11:00,
2013-02-24 23:21:00,28.0,24.0,30.14,East,86,0.0,1.0,86,0.00,,,0.02,,2013-02-25 04:21:00,
2013-02-24 23:31:00,28.0,24.0,30.15,East,86,0.0,1.0,85,0.00,,,0.02,,2013-02-25 04:31:00,
2013-02-24 23:41:00,28.0,24.0,30.15,East,86,0.0,1.0,85,0.00,,,0.02,,2013-02-25 04:41:00,
2013-02-24 23:52:00,27.0,23.0,30.14,East,88,0.0,0.0,86,0.00,,,0.02,,2013-02-25 04:52:00,